#timestamp,LO_Frequency,Hit,StdDev 
1682528415.2,286047006.0,Y
1682528435.0,286047002.3,P
1682528435.9,286047002.3,P
1682528455.8,286047002.0,P
1682528475.6,286047001.3,N
1682528495.5,286047004.0,Y
1682528515.3,286047000.5,P
1682528535.1,286046999.9,N
1682528555.9,286047002.7,N
1682528575.7,286047002.6,N
1682528595.5,286047002.4,N
1682528615.4,286047001.4,N
1682528635.2,286047004.3,Y
1682528655.1,286047000.0,P
1682528656.0,286047000.0,N
1682528675.8,286047000.3,N
1682528695.6,286046999.8,N
1682528715.5,286046999.8,N
1682528735.3,286046999.9,N
1682528755.1,286047000.1,N
1682528775.9,286047001.5,N
1682528795.7,286047002.1,Y
1682528815.6,286047002.4,P
1682528835.4,286047000.1,N
1682528855.2,286047002.7,N
1682528875.1,286047002.1,N
1682528876.0,286047002.1,N
1682528895.8,286047002.2,N
1682528915.6,286046999.8,N
1682528935.5,286047000.1,N
1682528955.3,286047002.0,N
1682528975.2,286047003.9,Y
1682528995.9,286047002.5,P
1682529015.7,286047001.9,P
1682529035.6,286047001.7,P
1682529055.4,286047001.9,Y
1682529075.2,286047000.1,P
1682529095.1,286047000.5,N
1682529096.0,286047000.5,N
1682529115.8,286046996.5,Y
1682529135.7,286046998.0,P
1682529155.5,286046994.0,P
1682529175.3,286046993.7,N
1682529195.2,286046986.3,Y
1682529215.0,286046999.1,P
1682529215.9,286046999.1,N
1682529235.8,286046998.4,N
1682529255.6,286047001.2,N
1682529275.4,286047000.5,N
1682529295.3,286047000.5,N
1682529315.1,286047002.8,N
1682529335.9,286047000.5,N
1682529355.7,286046998.6,N
1682529375.5,286046998.1,N
1682529395.4,286047001.0,N
1682529415.2,286047001.2,N
1682529435.0,286047000.1,N
1682529435.9,286047000.1,N
1682529455.8,286046999.9,N
1682529475.6,286047001.2,N
1682529495.5,286046998.9,N
1682529515.3,286046998.1,N
1682529535.1,286047000.0,N
1682529555.9,286047002.7,N
1682529575.7,286047002.8,N
1682529595.6,286047002.2,N
1682529615.4,286047002.7,N
1682529635.2,286046999.8,N
1682529655.1,286047001.9,N
1682529656.0,286047001.9,N
1682529675.8,286047001.9,N
1682529695.6,286047004.4,N
1682529715.5,286047004.3,N
1682529735.3,286047004.3,N
1682529755.2,286047003.7,N
1682529775.9,286047004.2,N
1682529795.7,286047003.7,N
1682529815.6,286047003.3,N
1682529835.4,286047003.5,N
1682529855.2,286047004.2,N
1682529875.1,286047004.2,N
1682529876.0,286047004.2,N
1682529895.8,286047003.5,N
1682529915.6,286047003.7,N
1682529935.5,286047004.2,N
1682529955.3,286047002.2,N
1682529975.2,286047002.5,N
1682529995.9,286047001.6,N
1682530015.7,286047001.5,N
1682530035.6,286047002.1,N
1682530055.4,286047002.7,N
1682530075.2,286047001.9,N
1682530095.1,286047002.3,N
1682530096.0,286047002.3,N
1682530115.8,286047002.5,N
1682530135.7,286047001.6,N
1682530155.5,286047002.0,N
1682530175.3,286047000.0,N
1682530195.2,286047000.8,N
1682530215.0,286046998.7,N
1682530215.9,286046998.7,N
1682530235.7,286046998.1,N
1682530255.6,286046999.1,N
1682530275.4,286046998.7,N
1682530295.3,286046998.7,N
1682530315.1,286046999.4,N
1682530316.0,286046999.4,N
1682530335.8,286046998.7,N
1682530355.7,286047000.4,N
1682530375.5,286047001.0,N
1682530395.3,286046998.9,N
1682530415.2,286046999.2,N
1682530435.0,286046997.1,N
1682530435.9,286046997.1,N
1682530455.8,286046997.9,N
1682530475.6,286046995.3,N
1682530495.4,286046995.7,N
1682530515.3,286046995.3,N
1682530535.1,286046996.1,N
1682530555.8,286046997.7,N
1682530575.7,286046998.0,N
1682530595.5,286046996.0,N
1682530615.4,286046996.1,N
1682530635.2,286046997.8,N
1682530655.0,286046996.5,N
1682530655.9,286046996.5,N
1682530675.8,286046994.9,N
1682530695.6,286046999.6,N
1682530715.4,286046999.5,N
1682530735.3,286046998.7,N
1682530755.1,286046998.4,N
1682530775.9,286046999.2,N
1682530795.7,286046997.0,N
1682530815.5,286046999.6,N
1682530835.4,286046996.5,N
1682530855.2,286046996.6,N
1682530875.1,286046996.5,N
1682530876.0,286046996.5,N
1682530895.8,286046996.9,N
1682530915.6,286046997.4,N
1682530935.5,286046997.2,N
1682530955.3,286046995.3,Y
1682530975.2,286046998.2,P
1682530995.9,286046999.1,N
1682531015.7,286046998.6,N
1682531035.6,286046998.3,N
1682531055.4,286046998.6,N
1682531075.2,286046998.6,N
1682531095.1,286047000.7,N
1682531096.0,286047000.7,N
1682531115.8,286047002.2,N
1682531135.7,286047000.3,N
1682531155.5,286047000.2,N
1682531175.3,286047000.7,N
1682531195.2,286046998.3,N
1682531215.0,286046998.7,N
1682531215.9,286046998.7,N
1682531235.7,286046999.3,N
1682531255.6,286046998.3,N
1682531275.4,286046998.3,N
1682531295.3,286046998.2,N
1682531315.1,286046998.3,N
1682531316.0,286046998.3,N
1682531335.8,286046999.4,N
1682531355.7,286046998.8,N
1682531375.5,286046998.6,N
1682531395.3,286046998.1,N
1682531415.2,286047000.4,N
1682531435.0,286047000.2,N
1682531435.9,286047000.2,N
1682531455.8,286046999.7,N
1682531475.6,286046999.8,N
1682531495.4,286046999.7,N
1682531515.3,286047000.4,N
1682531535.1,286047000.3,N
1682531555.9,286047000.7,N
1682531575.7,286047002.5,N
1682531595.5,286047002.7,N
1682531615.4,286047002.1,N
1682531635.2,286047002.7,N
1682531655.0,286047001.9,N
1682531655.9,286047001.9,N
1682531675.8,286047002.6,N
1682531695.6,286047002.1,N
1682531715.5,286047002.5,N
1682531735.3,286047001.7,N
1682531755.1,286047001.8,N
1682531775.9,286047003.9,N
1682531795.7,286047003.6,N
1682531815.5,286047005.2,N
1682531835.4,286047004.5,N
1682531855.2,286047007.6,Y
1682531875.1,286047003.1,P
1682531876.0,286047003.1,P
1682531895.8,286047004.0,P
1682531915.6,286047004.4,Y
1682531935.5,286047000.6,P
1682531955.3,286047002.7,N
1682531975.1,286047002.1,N
1682531995.9,286047004.4,Y
